Wind_Speed
6 3 6 11 8 9 5 5 7 8 6 6 2 5 9 16 7 15 18 14 28 42 47 46 43 42 39 41 42 39 37 33 34 32 30 32 37 34 30 27 24 25 25 26
5 6 11 9 9 6 9 8 7 7 9 6 8 7 7 6 8 21 29 34 25 27 40 47 48 45 42 42 42 41 37 34 34 33 30 28 28 28 26 26 26 28 28 28
5 10 3 5 13 6 4 2 5 5 7 5 6 9 8 21 14 28 33 35 37 24 31 44 48 47 44 43 44 42 38 34 34 34 31 29 26 25 24 26 28 33 31 28
7 13 5 7 5 5 2 6 4 7 6 5 5 6 7 9 11 15 28 30 28 23 16 32 51 51 48 46 43 40 37 36 34 32 32 30 31 32 31 32 30 33 33 26
8 10 9 8 7 3 7 4 2 1 4 4 7 3 8 8 9 11 10 2 8 6 16 25 40 49 50 46 39 37 36 36 35 33 31 31 30 31 32 29 32 31 28 18
8 19 4 7 6 1 1 5 8 5 3 4 4 2 7 6 7 8 16 19 19 15 12 13 28 39 43 38 37 35 34 35 33 33 32 28 29 30 26 26 29 29 21 16
7 6 6 9 2 7 9 7 4 5 5 5 5 2 7 13 11 15 15 8 14 13 15 18 23 28 38 38 35 34 31 30 26 27 27 27 28 29 29 28 26 25 19 17
3 7 6 6 8 8 4 7 5 4 3 6 6 2 6 6 9 26 26 36 25 9 20 25 27 31 33 31 29 29 28 25 26 24 22 26 27 27 24 22 21 17 15 12
2 4 6 8 4 8 4 2 6 4 0 3 3 6 7 11 13 21 22 28 30 18 20 29 29 27 26 26 24 23 27 25 19 14 20 20 20 20 18 16 16 16 15 14
3 3 2 6 7 6 3 3 3 3 1 2 4 5 4 7 8 6 10 14 15 17 5 23 24 25 23 20 19 22 24 20 14 12 12 17 16 16 16 18 16 15 16 15
4 3 6 3 3 2 8 6 4 2 5 5 2 6 6 4 1 2 4 11 15 10 5 17 26 24 21 21 21 23 23 19 14 11 10 16 17 13 13 13 13 13 14 14
4 2 2 5 6 5 5 4 4 4 8 3 4 6 5 3 2 5 2 10 15 9 4 8 22 21 20 18 17 22 22 19 15 11 6 14 17 15 15 15 16 15 14 14
2 3 4 10 7 8 5 4 2 3 1 2 2 6 2 3 6 5 7 15 15 15 21 9 22 23 22 22 21 24 23 18 13 8 9 10 13 14 14 16 15 13 12 11
3 3 6 5 5 2 6 13 6 4 1 4 5 7 11 11 10 17 13 17 18 19 23 18 16 24 27 24 24 24 21 18 13 9 8 9 10 11 10 10 10 9 9 10
4 1 3 5 6 4 4 10 15 8 6 4 11 12 8 6 5 12 19 22 24 26 27 24 22 14 26 27 24 21 22 18 13 7 10 8 8 8 8 8 7 7 9 10
7 3 3 3 4 7 6 6 9 12 15 7 10 10 7 13 20 23 20 20 25 23 26 28 24 22 22 31 26 26 21 18 10 6 9 8 7 7 8 6 5 7 9 10
2 2 3 4 5 5 4 6 4 6 6 6 6 10 5 9 17 19 22 26 28 30 27 29 28 21 16 21 23 18 11 6 11 9 3 8 6 6 4 3 4 6 9 11
5 4 3 3 3 3 6 5 7 3 4 9 6 11 10 13 16 24 28 31 33 32 28 28 29 25 11 13 14 12 17 11 26 12 7 6 5 3 1 4 6 8 9 14
11 5 1 3 4 5 7 4 2 2 2 9 6 8 15 12 11 26 26 26 30 30 30 23 26 26 19 9 11 16 10 16 19 12 8 5 6 3 3 5 8 11 13 15
5 4 4 2 2 4 5 5 19 4 2 18 18 5 4 13 4 4 16 21 27 28 28 22 23 23 17 15 9 14 15 18 14 11 10 5 4 7 7 7 9 11 11 3
2 1 6 4 4 5 5 6 7 2 3 16 26 20 13 5 4 12 17 17 24 24 25 25 25 23 18 13 2 11 10 9 9 10 5 4 5 7 7 11 10 9 4 7
3 3 4 2 2 8 13 6 4 6 5 6 14 22 23 19 16 17 18 21 22 24 22 24 23 24 16 7 5 5 6 6 6 6 4 4 7 9 11 8 8 4 6 11
1 3 3 5 5 3 13 15 8 10 8 5 8 14 22 26 23 19 18 22 21 21 23 18 22 19 19 8 7 9 8 7 7 5 6 7 7 4 4 6 7 7 12 16
6 3 2 3 2 11 17 7 17 17 14 11 14 18 27 27 28 23 23 21 19 17 20 23 17 25 18 14 10 10 10 8 9 7 8 6 2 4 3 7 11 10 10 11
6 9 4 7 14 14 5 20 20 22 16 13 10 11 13 15 21 20 20 15 18 21 22 23 21 22 16 17 13 11 11 10 12 8 6 2 1 2 8 8 6 7 6 7
9 7 6 11 17 12 13 30 25 26 26 23 21 24 25 24 26 27 25 23 23 22 21 24 21 20 14 16 14 12 14 17 11 8 4 3 3 1 5 5 6 6 8 10
Wind_Direction
272 75 240 244 211 225 240 256 266 267 286 15 286 272 284 279 289 310 302 275 215 216 210 206 205 207 208 211 212 215 214 216 215 219 221 224 230 234 239 241 239 245 246 247
356 268 247 246 253 225 253 257 284 292 323 2 326 300 274 271 293 312 301 293 277 220 212 209 204 207 213 214 212 214 220 222 224 226 225 229 233 236 238 237 239 247 248 254
194 251 295 246 272 276 309 276 296 295 323 355 357 328 335 310 329 315 302 289 274 256 220 210 204 210 214 215 214 217 223 226 228 230 227 230 229 232 235 233 232 241 246 249
241 273 249 312 261 204 268 270 328 332 25 312 56 299 301 287 305 298 294 276 266 261 224 209 207 207 215 218 216 219 224 227 230 233 229 228 232 231 240 239 239 238 241 247
261 307 317 311 266 138 231 260 329 311 354 17 357 36 272 303 316 304 294 284 290 232 201 201 209 211 210 214 219 223 225 228 230 233 237 237 234 238 240 240 236 236 244 248
247 284 231 238 329 201 42 35 21 39 49 24 252 144 290 330 282 308 313 113 123 125 161 187 206 208 210 213 220 223 225 227 227 230 236 234 238 235 239 239 235 240 248 253
319 272 269 214 281 339 62 57 353 356 7 223 306 30 259 302 28 57 18 0 145 158 168 177 191 198 204 213 220 221 223 222 222 226 236 239 238 249 256 255 257 251 241 249
257 326 353 320 174 187 184 145 149 243 260 274 323 297 287 290 336 27 31 34 31 251 188 187 190 196 200 208 214 220 227 230 227 230 235 248 249 250 251 256 258 243 244 264
228 271 319 37 0 130 269 219 182 140 107 32 275 311 327 356 11 9 8 37 24 26 199 192 194 196 204 213 224 231 230 224 227 255 255 247 238 239 246 248 243 244 262 270
248 297 338 315 10 51 62 253 6 12 252 290 301 301 241 341 336 19 0 22 36 16 275 216 214 212 211 216 227 231 232 235 244 249 249 239 236 238 241 245 246 260 272 272
9 80 294 37 25 55 353 337 353 127 144 176 239 275 226 242 206 22 31 54 39 32 8 254 217 203 205 219 231 238 232 223 231 243 247 234 229 229 245 254 265 270 269 271
350 131 326 261 272 193 178 70 76 69 304 255 158 264 253 256 138 290 352 347 356 20 22 249 217 215 222 232 244 239 220 222 211 219 237 238 232 241 248 247 253 256 264 270
318 14 7 340 351 9 19 25 45 228 89 310 80 274 75 323 298 288 292 37 69 42 42 208 213 219 232 238 234 216 221 219 215 208 255 242 238 240 246 247 249 252 260 275
39 120 157 206 237 246 322 329 354 105 30 294 251 275 310 331 325 341 36 59 43 38 36 37 231 226 233 235 227 219 214 213 207 228 249 249 248 255 244 244 251 266 284 301
75 171 202 238 285 333 327 321 323 337 241 237 283 286 282 315 81 41 55 50 41 31 26 18 9 266 230 231 220 224 220 204 201 241 277 278 269 253 249 255 265 288 304 307
354 298 344 298 321 358 335 299 294 292 301 297 284 279 251 121 74 52 44 36 30 27 19 10 0 356 239 231 221 234 211 201 190 247 294 271 266 261 257 252 290 309 300 306
22 69 38 264 358 1 342 268 306 326 350 306 324 325 81 69 60 47 37 34 30 23 17 14 6 341 286 232 239 211 194 305 260 220 261 258 260 271 254 257 289 310 308 303
176 134 147 246 25 244 245 307 284 304 28 357 16 20 44 76 62 42 30 26 23 25 18 14 11 6 332 254 247 246 285 258 231 211 202 218 234 200 277 287 302 292 291 302
182 138 187 193 193 290 308 324 15 19 58 11 5 3 14 356 20 19 12 16 15 15 13 11 9 4 353 313 286 272 275 203 208 204 207 214 180 154 286 259 257 281 297 313
91 89 140 138 197 233 253 303 345 320 84 344 330 330 39 74 52 285 12 7 12 14 13 9 6 7 4 2 318 226 195 191 203 199 188 177 179 224 257 256 273 300 307 326
23 330 200 208 220 274 246 273 331 116 270 4 14 7 23 41 41 13 17 5 10 15 11 5 360 1 2 1 354 179 186 200 195 189 159 172 226 237 256 276 295 301 315 336
210 210 210 165 229 283 348 346 127 199 169 342 356 5 1 1 4 3 357 353 350 356 353 352 349 343 341 335 312 281 268 255 203 196 180 225 241 264 283 295 323 310 329 315
66 120 242 192 225 88 33 70 61 41 25 22 328 312 331 335 337 339 343 331 332 334 338 332 339 338 325 292 274 279 302 216 200 215 222 241 272 268 343 19 16 330 314 314
318 9 255 360 260 329 332 18 3 347 322 302 284 296 301 307 305 313 316 320 325 323 333 337 307 327 301 281 273 266 260 206 212 227 239 245 243 48 10 319 314 318 324 326
238 327 325 288 285 311 258 335 336 331 332 308 295 297 282 282 293 303 306 307 312 319 328 331 315 317 286 283 262 260 246 225 216 226 225 221 51 68 316 323 333 341 347 348
227 233 240 266 282 280 284 310 313 312 309 305 301 302 299 289 288 292 290 295 305 308 309 321 316 326 291 282 264 253 230 220 211 212 173 117 118 6 307 318 336 355 348 346
Height
1525 1532 1539 1529 1527 1524 1525 1528 1527 1514 1500 1500 1501 1498 1490 1485 1482 1478 1478 1480 1483 1482 1480 1484 1488 1492 1496 1498 1501 1504 1506 1509 1513 1515 1517 1519 1520 1523 1525 1526 1526 1527 1527 1526
1531 1536 1520 1518 1519 1523 1523 1526 1524 1509 1497 1500 1500 1497 1487 1481 1479 1478 1475 1471 1472 1476 1478 1481 1484 1487 1491 1492 1496 1499 1502 1505 1508 1511 1514 1516 1518 1520 1521 1522 1523 1524 1524 1519
1536 1521 1515 1518 1515 1519 1516 1518 1518 1517 1504 1499 1500 1503 1491 1474 1475 1472 1469 1465 1463 1466 1470 1475 1480 1482 1485 1487 1490 1495 1499 1501 1503 1506 1510 1512 1514 1515 1515 1516 1519 1518 1518 1517
1527 1513 1515 1516 1514 1508 1520 1505 1507 1511 1519 1533 1506 1538 1501 1487 1479 1469 1463 1455 1454 1461 1463 1467 1473 1478 1480 1483 1489 1493 1497 1500 1502 1504 1506 1506 1506 1505 1506 1505 1510 1511 1512 1513
1527 1517 1517 1518 1511 1504 1515 1503 1506 1508 1517 1522 1521 1534 1507 1488 1484 1471 1455 1450 1456 1459 1463 1464 1468 1475 1479 1485 1491 1494 1496 1498 1499 1501 1502 1503 1503 1503 1502 1503 1505 1508 1508 1508
1519 1511 1511 1508 1503 1502 1501 1507 1514 1520 1528 1551 1525 1527 1516 1501 1488 1471 1464 1454 1456 1459 1463 1466 1470 1472 1480 1485 1488 1490 1491 1493 1495 1496 1498 1499 1500 1500 1501 1498 1501 1503 1505 1508
1519 1512 1502 1499 1507 1504 1508 1528 1558 1555 1559 1556 1521 1531 1521 1494 1479 1474 1477 1471 1461 1461 1462 1465 1470 1473 1477 1480 1484 1487 1489 1491 1494 1494 1496 1497 1497 1497 1497 1498 1499 1501 1502 1501
1537 1536 1506 1497 1502 1511 1511 1524 1555 1557 1564 1550 1523 1526 1513 1489 1482 1476 1474 1472 1471 1468 1464 1467 1469 1472 1476 1480 1483 1486 1488 1490 1491 1492 1493 1493 1493 1493 1494 1496 1498 1500 1501 1503
1531 1525 1502 1499 1498 1501 1509 1522 1515 1533 1536 1549 1537 1513 1497 1488 1481 1481 1479 1478 1477 1471 1473 1470 1471 1475 1477 1479 1482 1485 1486 1487 1489 1491 1491 1490 1490 1491 1492 1494 1496 1499 1499 1500
1516 1530 1509 1503 1500 1503 1508 1508 1527 1542 1547 1549 1542 1526 1524 1501 1493 1488 1485 1484 1482 1477 1476 1477 1476 1476 1477 1480 1481 1481 1482 1484 1487 1487 1487 1487 1487 1488 1491 1493 1495 1496 1497 1498
1518 1524 1522 1509 1515 1519 1521 1526 1523 1531 1540 1554 1554 1541 1504 1495 1488 1486 1483 1482 1478 1475 1474 1478 1475 1477 1479 1478 1477 1477 1479 1482 1482 1483 1484 1485 1486 1488 1490 1491 1493 1495 1496 1497
1523 1529 1536 1523 1510 1509 1513 1522 1532 1551 1544 1540 1542 1535 1490 1489 1487 1485 1480 1479 1477 1477 1476 1475 1476 1477 1475 1475 1475 1476 1479 1478 1477 1479 1480 1483 1486 1488 1489 1490 1492 1493 1494 1495
1523 1539 1552 1537 1523 1517 1522 1523 1527 1531 1538 1536 1546 1535 1496 1490 1485 1481 1480 1484 1479 1477 1473 1471 1472 1472 1472 1470 1469 1472 1474 1479 1478 1478 1481 1482 1485 1487 1488 1490 1490 1491 1492 1493
1524 1536 1543 1555 1539 1533 1534 1524 1523 1531 1546 1538 1532 1519 1500 1494 1490 1485 1485 1484 1481 1476 1474 1473 1473 1471 1470 1467 1467 1469 1470 1472 1474 1478 1478 1480 1483 1484 1487 1487 1489 1490 1490 1490
1530 1540 1535 1535 1532 1530 1531 1528 1519 1527 1527 1533 1516 1509 1502 1495 1495 1493 1489 1484 1482 1481 1477 1474 1470 1466 1468 1466 1467 1470 1467 1472 1474 1477 1478 1478 1480 1481 1483 1484 1486 1488 1489 1488
1534 1540 1535 1536 1531 1532 1532 1527 1525 1520 1514 1514 1506 1506 1494 1497 1493 1492 1491 1489 1484 1482 1480 1476 1473 1468 1463 1459 1467 1459 1465 1468 1471 1474 1478 1479 1479 1480 1481 1482 1484 1485 1486 1485
1539 1542 1547 1548 1538 1535 1543 1526 1522 1523 1519 1516 1516 1506 1494 1500 1499 1498 1497 1493 1486 1481 1478 1476 1473 1465 1459 1470 1469 1472 1467 1466 1475 1470 1470 1477 1477 1481 1482 1481 1482 1483 1482 1483
1536 1541 1546 1551 1542 1555 1527 1519 1518 1522 1521 1516 1511 1508 1507 1505 1504 1502 1498 1495 1491 1483 1478 1476 1472 1466 1462 1464 1467 1470 1467 1467 1476 1474 1470 1469 1473 1477 1480 1482 1481 1482 1481 1480
1524 1536 1545 1550 1553 1537 1526 1516 1520 1521 1526 1521 1516 1510 1508 1504 1504 1501 1501 1500 1498 1489 1482 1478 1475 1472 1468 1468 1469 1465 1464 1466 1473 1472 1472 1471 1471 1475 1479 1479 1478 1480 1479 1477
1525 1528 1539 1548 1549 1550 1525 1513 1509 1510 1532 1521 1518 1514 1509 1505 1514 1512 1506 1503 1500 1491 1485 1480 1478 1476 1472 1469 1468 1469 1468 1471 1475 1472 1472 1470 1473 1475 1477 1478 1478 1478 1477 1475
1532 1535 1539 1543 1545 1536 1518 1514 1510 1524 1534 1522 1520 1520 1517 1513 1513 1512 1504 1502 1500 1496 1490 1485 1482 1478 1476 1472 1470 1472 1476 1478 1476 1475 1466 1471 1475 1476 1478 1478 1477 1476 1475 1473
1533 1536 1540 1538 1540 1539 1517 1511 1520 1520 1516 1517 1518 1519 1517 1516 1511 1507 1505 1501 1499 1494 1492 1487 1482 1480 1478 1475 1474 1473 1473 1472 1471 1471 1471 1473 1475 1477 1478 1477 1476 1474 1473 1472
1535 1535 1538 1532 1529 1521 1521 1519 1518 1518 1516 1513 1513 1514 1514 1515 1511 1505 1502 1501 1498 1494 1491 1487 1482 1480 1479 1476 1474 1473 1471 1471 1472 1473 1474 1475 1476 1477 1477 1476 1475 1474 1472 1469
1531 1528 1530 1527 1520 1518 1516 1516 1515 1514 1512 1510 1510 1505 1507 1510 1508 1503 1498 1495 1492 1489 1486 1484 1480 1477 1476 1475 1474 1473 1472 1472 1474 1474 1475 1475 1476 1477 1477 1475 1473 1472 1469 1467
1532 1529 1527 1526 1519 1515 1514 1514 1513 1511 1511 1509 1507 1505 1503 1500 1500 1496 1493 1490 1488 1484 1482 1481 1477 1473 1472 1473 1473 1472 1472 1472 1473 1473 1474 1476 1476 1476 1475 1474 1473 1471 1468 1466
1525 1525 1526 1515 1515 1514 1510 1509 1509 1507 1506 1505 1503 1500 1497 1497 1493 1490 1487 1485 1484 1482 1480 1478 1474 1471 1470 1471 1470 1470 1470 1470 1470 1472 1474 1474 1475 1476 1474 1472 1470 1470 1468 1465